Home > Time Zones > World Clock > Weather > Oman > Muscat > Past weeks

Flag for Oman Weather past 2 weeks in Muscat, Oman

Now
93 °F

Clear.


Feels Like: 121 °F
Forecast: 87 / 93 °F
Wind: 13 mph from Northeast

Location: International Airport

Current Time: Jul 29, 2014 at 1:59:11 PM

Latest Report: Jul 29, 2014 at 12:50 PM


Visibility: 5 mi

Pressure: 29.39 "Hg

Humidity: 75%

Dew point: 84 °F

Location of MuscatLocation

Historic Weather in Muscat — Graph

°F

Muscat temperature yesterday

Maximum temperature yesterday: 95 °F (at 11:50 AM)
Minimum temperature yesterday: 84 °F (at 5:50 AM)
Average temperature yesterday: 91 °F

Past Weeks' High & Low Weather Summary

 TemperatureHumidityPressure
High108 °F (Jul 16, 9:50 AM)100% (Jul 22, 4:50 AM)29.65 "Hg (Jul 22, 4:50 AM)
Low82 °F (Jul 15, 2:50 AM)17% (Jul 25, 1:50 AM)29.33 "Hg (Jul 17, 1:50 AM)
Average91 °F72%29.44 "Hg
* Reported Jul 14 12:50 PM — Jul 29 12:50 PM, Muscat, Weather by CustomWeather, © 2014

Note: Actual official high and low records may vary slightly from our data, if they occured in-between our weather recording intervals... More about our weather records

Advertising

Muscat weather history for previous 24 hours

 ConditionsComfort  
Time TempWeatherWind HumidityBarometerVisibility
12:50 PM
Jul 29
93 °FClear.13 mph75%29.39 "Hg5 mi
11:50 AM95 °FClear.10 mph67%29.39 "Hg5 mi
10:50 AM93 °FClear.6 mph71%29.42 "Hg5 mi
9:50 AM91 °FClear.7 mph80%29.42 "Hg4 mi
8:50 AM90 °FClear.3 mph84%29.42 "Hg4 mi
7:50 AM88 °FClear.5 mph94%29.42 "Hg4 mi
6:50 AM88 °FClear.6 mph94%29.42 "Hg4 mi
5:50 AM88 °FClear.2 mph94%29.39 "Hg4 mi
4:50 AM88 °FClear.2 mph94%29.39 "Hg4 mi
3:50 AM88 °FClear.3 mph94%29.39 "Hg4 mi
2:50 AM88 °FClear.5 mph89%29.36 "Hg4 mi
1:50 AM90 °FClear.2 mph79%29.36 "Hg4 mi
12:50 AM91 °FClear.No wind75%29.36 "Hg4 mi
11:50 PM
Jul 28
91 °FClear.1 mph75%29.39 "Hg4 mi
10:50 PM91 °FClear.2 mph75%29.39 "Hg4 mi
9:50 PM93 °FClear.6 mph67%29.39 "Hg4 mi
8:50 PM90 °FClear.5 mph75%29.42 "Hg4 mi
7:50 PM91 °FClear.2 mph71%29.39 "Hg4 mi
6:50 PM91 °FClear.5 mph71%29.39 "Hg4 mi
5:50 PM91 °FClear.8 mph75%29.39 "Hg4 mi
4:50 PM93 °FClear.10 mph67%29.39 "Hg4 mi
3:50 PM93 °FClear.14 mph67%29.39 "Hg4 mi
2:50 PM95 °FClear.12 mph63%29.42 "Hg4 mi
1:50 PM93 °FClear.13 mph71%29.45 "Hg4 mi
Weather by CustomWeather, © 2014

See weather overviewHow to use our weather pages